06.05.2024;10:00;13
06.05.2024;09:00;18
06.05.2024;08:00;18
06.05.2024;07:00;16
06.05.2024;06:00;16
06.05.2024;05:00;12
06.05.2024;04:00;11
06.05.2024;03:00;13
06.05.2024;02:00;13
06.05.2024;01:00;16
06.05.2024;00:00;24
05.05.2024;23:00;18
05.05.2024;22:00;14
05.05.2024;21:00;13
05.05.2024;20:00;3
05.05.2024;19:00;2
05.05.2024;18:00;2
05.05.2024;17:00;3
05.05.2024;16:00;2
05.05.2024;15:00;2
05.05.2024;14:00;2
05.05.2024;13:00;2
05.05.2024;12:00;2
05.05.2024;11:00;3
05.05.2024;10:00;4
05.05.2024;09:00;7
05.05.2024;08:00;15
05.05.2024;07:00;13
05.05.2024;06:00;16
05.05.2024;05:00;17
05.05.2024;04:00;10
05.05.2024;03:00;12
05.05.2024;02:00;16
05.05.2024;01:00;19
05.05.2024;00:00;20
04.05.2024;23:00;28
04.05.2024;22:00;16
04.05.2024;21:00;9
04.05.2024;20:00;7
04.05.2024;19:00;4
04.05.2024;18:00;5
04.05.2024;17:00;4
04.05.2024;16:00;4
04.05.2024;15:00;4
04.05.2024;14:00;5
04.05.2024;13:00;5
04.05.2024;12:00;5
04.05.2024;11:00;10
